#timestamp,LO_Frequency,Hit,StdDev 
1524322815.5,286047002.1,N
1524322835.3,286047004.2,Y
1524322855.2,286047001.9,P
1524322875.0,286047000.2,N
1524322875.9,286047000.2,N
1524322895.8,286047002.7,Y
1524322945.6,286046998.1,E
1524322955.5,286046999.9,N
1524322975.4,286047002.0,P
1524322995.2,286047002.5,N
1524323015.1,286047002.0,N
1524323016.0,286047002.0,N
1524323035.8,286046999.8,N
1524323055.6,286047001.6,N
1524323075.5,286047002.1,N
1524323095.3,286046999.9,N
1524323115.2,286047002.5,N
1524323135.9,286047002.5,N
1524323155.7,286047001.8,N
1524323175.6,286047002.3,N
1524323195.4,286047001.4,N
1524323215.2,286047003.5,Y
1524323235.1,286047004.3,P
1524323236.0,286047004.3,P
1524323255.8,286047001.5,N
1524323275.7,286047001.6,N
1524323295.5,286047002.5,N
1524323315.3,286047000.3,N
1524323335.2,286047000.2,N
1524323355.0,286047002.5,N
1524323355.9,286047002.5,N
1524323375.7,286047002.2,N
1524323395.6,286046999.8,N
1524323415.4,286047001.9,N
1524323435.3,286047002.0,N
1524323455.1,286047001.8,N
1524323456.0,286047001.8,N
1524323475.8,286047001.6,N
1524323495.7,286047001.4,N
1524323515.5,286047001.5,N
1524323535.3,286047002.1,N
1524323555.2,286047001.8,N
1524323575.0,286047002.1,N
1524323575.9,286047002.1,N
1524323595.8,286047000.5,N
1524323615.6,286047000.9,N
1524323635.4,286047000.7,N
1524323655.3,286047000.3,N
1524323675.1,286047000.1,N
1524323695.8,286046999.9,N
1524323715.7,286046999.9,N
1524323735.5,286047000.0,N
1524323755.4,286047000.4,N
1524323775.2,286047000.9,N
1524323795.0,286047001.2,N
1524323795.9,286047001.2,N
1524323815.8,286047000.5,N
1524323835.6,286046999.8,N
1524323855.5,286047001.0,N
1524323875.3,286047000.9,N
1524323895.1,286047002.5,Y
1524323915.9,286047002.6,P
1524323935.7,286047002.2,N
1524323955.5,286047002.5,P
1524323975.4,286047004.3,Y
1524323995.2,286046998.1,P
1524324015.1,286047000.7,N
1524324016.0,286047000.7,N
1524324035.8,286047000.7,N
1524324055.6,286047002.3,N
1524324075.5,286047000.2,N
1524324095.3,286047000.1,N
1524324115.1,286046999.9,N
1524324135.9,286046999.9,N
1524324155.7,286046999.2,N
1524324175.6,286046997.2,N
1524324195.4,286046997.9,N
1524324215.2,286046996.9,N
1524324235.1,286046997.0,N
1524324236.0,286046997.0,N
1524324255.8,286046996.8,N
1524324275.6,286046996.8,N
1524324295.5,286046996.8,N
1524324315.3,286046996.5,N
1524324335.2,286046999.4,N
1524324355.9,286046998.9,N
1524324375.7,286046999.3,N
1524324395.6,286046996.5,N
1524324415.4,286046997.0,N
1524324435.2,286046996.5,N
1524324455.1,286046996.5,N
1524324456.0,286046996.5,N
1524324475.8,286046996.7,N
1524324495.7,286046996.8,N
1524324515.5,286046997.0,N
1524324535.3,286046997.0,N
1524324555.2,286046999.0,N
1524324575.0,286046998.7,N
1524324575.9,286046998.7,N
1524324595.7,286046999.3,N
1524324615.6,286046997.7,N
1524324635.4,286046996.8,N
1524324655.3,286046997.2,N
1524324675.1,286046997.0,N
1524324676.0,286046997.0,Y
1524324695.8,286047000.1,P
1524324715.7,286047000.0,N
1524324735.5,286047000.1,N
1524324755.4,286047002.3,N
1524324775.2,286047000.9,N
1524324795.0,286047002.3,N
1524324795.9,286047002.3,N
1524324815.8,286047002.3,N
1524324835.6,286046998.4,N
1524324855.4,286047000.6,N
1524324875.3,286047001.2,N
1524324895.1,286047000.5,N
1524324915.9,286047001.1,N
1524324935.7,286047000.4,N
1524324955.5,286047000.7,N
1524324975.4,286046999.0,N
1524324995.2,286047000.2,N
1524325015.0,286047002.8,N
1524325015.9,286047002.8,N
1524325035.8,286047000.8,N
1524325055.6,286046998.6,N
1524325075.5,286047000.9,N
1524325095.3,286047000.2,N
1524325115.1,286047000.4,N
1524325135.9,286046999.7,N
1524325155.7,286047001.6,N
1524325175.5,286047000.1,N
1524325195.4,286046999.8,N
1524325215.2,286047000.2,N
1524325235.1,286047002.6,N
1524325236.0,286047002.6,N
1524325255.8,286047000.1,N
1524325275.6,286047001.0,N
1524325295.5,286047002.3,N
1524325315.3,286047000.1,N
1524325335.1,286047002.4,N
1524325355.9,286047002.6,N
1524325375.7,286047002.5,N
1524325395.6,286047002.4,N
1524325415.4,286047002.7,N
1524325435.2,286047002.1,N
1524325455.1,286047002.6,N
1524325456.0,286047002.6,N
1524325475.8,286047000.0,N
1524325495.6,286046999.8,N
1524325515.5,286047002.4,N
1524325535.3,286047001.8,N
1524325555.2,286047002.1,N
1524325575.9,286047002.1,N
1524325595.7,286047002.1,N
1524325615.6,286047011.9,Y
1524325635.4,286047000.6,P
1524325655.3,286047000.0,N
1524325675.1,286047000.3,N
1524325676.0,286047000.3,N
1524325695.8,286047002.1,Y
1524325715.7,286046998.1,P
1524325735.5,286046998.8,N
1524325755.3,286046996.6,P
1524325775.2,286046999.2,N
1524325795.0,286046996.5,N
1524325795.9,286046996.5,N
1524325815.8,286046999.4,N
1524325835.6,286047001.2,N
1524325855.4,286046998.2,N
1524325875.3,286047000.4,N
1524325895.1,286046999.4,N
1524325915.8,286046999.0,N
1524325935.7,286046998.9,N
1524325955.5,286046998.6,N
1524325975.4,286046998.1,N
1524325995.2,286046998.6,N
1524326015.0,286046998.8,N
1524326015.9,286046998.8,N
1524326035.8,286046996.5,N
1524326055.6,286046999.0,N
1524326075.5,286046998.4,N
1524326095.3,286046998.5,N
1524326145.2,286047000.9,E
1524326155.1,286046998.7,N
1524326156.0,286046998.7,P
1524326175.8,286046999.3,P
1524326195.7,286046995.0,Y
1524326215.5,286046997.8,P
1524326235.3,286046999.1,N
1524326255.2,286046999.0,N
1524326275.9,286046998.7,N
1524326295.7,286046998.2,Y
1524326315.6,286046998.6,P
1524326335.4,286046997.0,P
1524326355.3,286046999.3,N
1524326375.1,286046998.5,N
1524326376.0,286046998.5,N
1524326395.8,286047001.2,N
